• MPC Preparation (Info)

  • MPEC 2014-F57 : 2014 FM33

    The following Minor Planet Electronic Circular may be linked-to from your own Web pages, but must not otherwise be redistributed electronically.

    A form allowing access to any MPEC is at the bottom of this page.


    Read MPEC 2014-F56 Read MPEC 2014-F58


    M.P.E.C. 2014-F57                                Issued 2014 Mar. 28, 11:51 UT
    
         The Minor Planet Electronic Circulars contain information on unusual
             minor planets and routine data on comets.  They are published
       on behalf of Commission 20 of the International Astronomical Union by the
              Minor Planet Center, Smithsonian Astrophysical Observatory,
                              Cambridge, MA 02138, U.S.A.
    
                 Prepared using the Tamkin Foundation Computer Network
    
                                  MPC@CFA.HARVARD.EDU
                URL https://www.minorplanetcenter.net/    ISSN 1523-6714
    
                                       2014 FM33
    
    Observations:
         K14F33M* C2014 03 27.30293 13 17 43.54 +22 58 55.8          20.4 VqEF057703
         K14F33M  C2014 03 27.31051 13 17 50.50 +22 55 37.2          19.1 VqEF057703
         K14F33M  C2014 03 27.31809 13 17 57.30 +22 52 19.9          18.9 VqEF057703
         K14F33M  C2014 03 27.34081 13 18 18.00 +22 42 24.8                qEF057703
         K14F33M  C2014 03 27.34120 13 18 18.32 +22 42 16.2          19.8 VqEF057703
         K14F33M  C2014 03 27.34158 13 18 18.76 +22 42 07.5          19.6 VqEF057703
         K14F33M  C2014 03 27.45753 13 20 03.58 +21 51 10.7                qEF057G96
         K14F33M  C2014 03 27.46276 13 20 08.37 +21 48 51.7                qEF057G96
         K14F33M  C2014 03 27.46961 13 20 14.65 +21 45 50.3                qEF057G96
         K14F33M  C2014 03 27.47483 13 20 19.50 +21 43 31.0                qEF057G96
         K14F33M  C2014 03 27.49402 13 20 37.32 +21 35 00.7                qEF057G96
         K14F33M  C2014 03 27.49592 13 20 39.05 +21 34 12.3                qEF057G96
         K14F33M  C2014 03 27.49783 13 20 40.86 +21 33 20.0                qEF057G96
         K14F33M KC2014 03 27.86561313 27 15.36 +18 54 09.1          20.0 VqEF057I93
         K14F33M KC2014 03 27.87772413 27 26.27 +18 49 06.3          19.5 VqEF057I93
         K14F33M KC2014 03 27.88962413 27 36.88 +18 44 08.3          19.5 VqEF057I93
         K14F33M KC2014 03 28.09458 13 30 26.13 +17 18 10.7          19.4 RqEF057204
         K14F33M KC2014 03 28.10268 13 30 32.77 +17 14 46.2                qEF057204
         K14F33M KC2014 03 28.11137 13 30 39.95 +17 11 06.7                qEF057204
         K14F33M KC2014 03 28.28549 13 33 29.13 +15 59 41.8          19.2 RqEF057H36
         K14F33M KC2014 03 28.29274 13 33 34.68 +15 56 42.4          19.2 RqEF057H36
         K14F33M  C2014 03 28.30076 13 33 46.27 +15 54 03.3          18.9 RoEF057926
         K14F33M KC2014 03 28.30199 13 33 41.84 +15 52 56.5          19.4 RqEF057H36
         K14F33M  C2014 03 28.30266 13 33 47.72 +15 53 17.0          19.0 RoEF057926
         K14F33M  C2014 03 28.30456 13 33 49.18 +15 52 30.2          18.8 RoEF057926
         K14F33M KC2014 03 28.30571 13 33 44.67 +15 51 24.2          19.0 RqEF057H36
    
    Observer details:
    204 Schiaparelli Observatory.  Observer L. Buzzi.  0.60-m f/4.64 reflector
        + CCD.
    703 Catalina Sky Survey.  Observer R. A. Kowalski.  Measurers
        E. J. Christensen, A. R. Gibbs, A. D. Grauer, R. E. Hill, J. A. Johnson,
        R. A. Kowalski, S. M. Larson, F. C. Shelly.  0.68-m Schmidt + CCD.
    926 Tenagra II Observatory.  Observers M. Schwartz, P. R. Holvorcem.  0.81-m
        f/7 Ritchey-Chretien + CCD.
    G96 Mt. Lemmon Survey.  Observer A. R. Gibbs.  Measurers E. J. Christensen,
        A. R. Gibbs, A. D. Grauer, R. E. Hill, J. A. Johnson, R. A. Kowalski,
        S. M. Larson, F. C. Shelly.  1.5-m reflector + CCD.
    H36 Sandlot Observatory, Scranton.  Observer G. Hug.  0.56-m reflector + CCD.
    I93 St Pardon de Conques.  Observer F. Losse.  0.40-m f/3.7 reflector + CCD.
    
    Orbital elements:
    2014 FM33                                                Earth MOID = 0.0242 AU
    Epoch 2014 May 23.0 TT = JDT 2456800.5                  MPC
    M  29.92073              (2000.0)            P               Q
    n   0.41932880     Peri.  154.24327     -0.98259299     -0.18470946
    a   1.7677992      Node    15.15211     +0.15461810     -0.87232572
    e   0.4308069      Incl.    4.35208     +0.10297697     -0.45269222
    P   2.35           H   26.3           G   0.15           U   7
    Residuals in seconds of arc
    140327 703  0.4+  0.8+    140327 G96  0.2-  0.5-    140328 204  0.6+  0.5-
    140327 703  0.8+  0.3-    140327 G96  0.2+  1.4-    140328 H36  0.5+  0.4-
    140327 703  0.8-  0.0     140327 G96  0.4-  0.7+    140328 H36  0.2-  1.3-
    140327 703  0.4+  1.4-    140327 G96  0.0   0.9-    140328 926  0.2-  0.6+
    140327 703  0.1-  0.2+    140327 I93  0.5-  0.6+    140328 H36  0.3+  0.6+
    140327 703  1.3+  1.5+    140327 I93  0.5-  0.7+    140328 926  0.3-  0.8+
    140327 G96  0.4-  0.5+    140327 I93  0.5-  0.3+    140328 926  0.2-  0.6+
    140327 G96  0.4-  0.1+    140328 204  0.7+  0.9-    140328 H36  0.2-  0.0
    140327 G96  0.7-  0.3+    140328 204  0.4+  0.7-
    
    Ephemeris:
    2014 FM33                a,e,i = 1.77, 0.43, 4                   q = 1.0062
    Date    TT    R. A. (2000) Decl.     Delta      r     Elong.  Phase     V
    2014 02 26    05 22 40.3 +54 43 17   0.1001  1.0191   104.1    70.4    23.8
    ...
    2014 03 13    06 48 13.2 +61 24 54   0.05263 1.0059   101.9    75.2    22.5
    ...
    2014 03 21    10 18 37.5 +59 00 07   0.03029 1.0104   117.7    60.8    20.9
    ...
    2014 03 27    13 12 11.0 +25 13 17   0.02445 1.0189   149.8    29.5    19.6
    2014 03 28    13 29 05.2 +18 01 01   0.02525 1.0208   154.0    25.4    19.5
    2014 03 29    13 43 23.2 +11 17 42   0.02655 1.0227   156.6    22.8    19.6
    ...
    2014 04 04    14 34 40.3 -14 49 03   0.04109 1.0368   153.0    26.0    20.6
    ...
    2014 04 12    15 01 18.3 -27 34 19   0.06800 1.0614   149.5    28.6    21.9
    ...
    2014 04 27    15 13 02.7 -34 02 00   0.1264  1.1230   156.0    21.4    23.1
    
    A. U. Tomatic                (C) Copyright 2014 MPC           M.P.E.C. 2014-F57
    

    Read MPEC 2014-F56 Read MPEC 2014-F58


    MPEC number:

    Enter an MPEC number in one of the following forms:

    • 1997-B01 (the full form)
    • J97B01 (the packed version of the full form)
    • B01 (the abbreviated form)